Torna al catalogo

STARLINK-36935

AttivoComunicazioniSSO
NORAD 68032·PAYLOAD·🇺🇸 United States

Lanciato Mar 1, 2026 da Vandenberg Space Force Base

Loading…

Prossimi Passaggi (prossime 24 ore)

TLE

AggiornatoSource: CelesTrak SupGP

Epoca: Sep 15, 2026, 03:06 UTC

1 68032C 26040T   26258.12965278  .00033233  00000+0  10326-2 0  2589
2 68032  97.2853 205.6056 0001474  94.6638  91.0625 15.33392342    10

Traccia STARLINK-36935 in tempo reale con AllMySat

Download on the App Store